Location: Olsztyn
(53.7767°N, 20.4765°E)
Time: 12:01:36
(UTC+01:00)

A-11 Canister half - Visible Passes

Search period start: 19 January 2022 00:00
Search period end: 29 January 2022 00:00
Orbit: 1516 x 1684 km, 47.2° (Epoch: 18 January)

Date Brightness Start Highest point End Pass type
(mag) Time Alt. Az. Time Alt. Az. Time Alt. Az.
19 Jan 10.4 16:33:47 10° S 16:39:47 19° SE 16:45:44 10° E visible
19 Jan 9.4 18:34:09 10° SW 18:42:46 43° SSE 18:45:30 36° ESE visible
19 Jan 9.6 20:37:37 10° WSW 20:43:42 43° SW 20:43:42 43° SW visible
20 Jan 9.5 18:11:22 10° SW 18:19:56 42° SSE 18:23:57 29° ESE visible
20 Jan 9.3 20:14:44 10° WSW 20:22:09 52° SSW 20:22:09 52° SSW visible
20 Jan 10.9 22:19:02 10° W 22:20:22 15° W 22:20:22 15° W visible
21 Jan 9.5 17:48:34 10° SW 17:57:06 41° SSE 18:02:23 22° E visible
21 Jan 9.0 19:51:52 10° WSW 20:00:35 58° S 20:00:35 58° S visible
21 Jan 10.6 21:56:09 10° W 21:58:47 21° W 21:58:47 21° W visible
22 Jan 9.6 17:25:48 10° SW 17:34:15 40° SSE 17:40:47 17° E visible
22 Jan 9.0 19:28:59 10° WSW 19:38:03 58° S 19:39:00 56° SSE visible
22 Jan 10.3 21:33:15 10° W 21:37:11 28° WSW 21:37:11 28° WSW visible
23 Jan 9.7 17:03:01 10° SSW 17:11:26 38° SSE 17:19:12 12° E visible
23 Jan 9.1 19:06:07 10° WSW 19:15:11 58° S 19:17:24 48° SE visible
23 Jan 9.9 21:10:22 10° W 21:15:36 35° WSW 21:15:36 35° WSW visible
24 Jan 9.8 16:40:15 10° SSW 16:48:36 37° SSE 16:56:47 10° E visible
24 Jan 9.1 18:43:15 10° WSW 18:52:19 57° S 18:55:48 38° ESE visible
24 Jan 9.6 20:47:28 10° W 20:54:00 44° WSW 20:54:00 44° WSW visible
25 Jan 9.2 18:20:22 10° WSW 18:29:28 57° S 18:34:11 30° ESE visible
25 Jan 9.3 20:24:34 10° W 20:32:23 51° SW 20:32:23 51° SW visible
25 Jan 10.9 22:29:19 10° W 22:30:35 14° W 22:30:35 14° W visible
26 Jan 9.3 17:57:30 10° WSW 18:06:35 56° S 18:12:35 23° ESE visible
26 Jan 9.1 20:01:40 10° W 20:10:39 55° SSW 20:10:47 55° S visible
26 Jan 10.7 22:06:23 10° W 22:08:59 19° W 22:08:59 19° W visible
27 Jan 9.3 17:34:38 10° WSW 17:43:43 55° SSE 17:50:59 17° E visible
27 Jan 9.1 19:38:46 10° W 19:47:47 55° SSW 19:49:11 51° SSE visible
27 Jan 10.4 21:43:26 10° W 21:47:24 24° WSW 21:47:24 24° WSW visible
28 Jan 9.4 17:11:45 10° WSW 17:20:52 54° SSE 17:29:25 11° E visible
28 Jan 9.2 19:15:53 10° W 19:24:55 56° S 19:27:36 44° SE visible
28 Jan 10.1 21:20:31 10° W 21:25:49 29° WSW 21:25:49 29° WSW visible
